Time,TemperatureF,DewpointF,PressureIn,WindDirection,WindDirectionDegrees,WindSpeedMPH,WindSpeedGustMPH,Humidity,HourlyPrecipIn,Conditions,Clouds,dailyrainin,SoftwareType,DateUTC
2013-04-28 00:32:00,57.0,29.0,-100.00,SSW,210,8.0,9.0,34,-99.99,,,-99.99,,2013-04-28 06:32:00,
2013-04-28 00:42:00,57.0,29.0,-100.00,SSW,210,8.0,9.0,34,-99.99,,,-99.99,,2013-04-28 06:42:00,
2013-04-28 00:51:00,57.0,29.0,-100.00,SSW,210,8.0,9.0,34,-99.99,,,-99.99,,2013-04-28 06:51:00,
2013-04-28 01:01:00,57.0,29.0,-100.00,SSW,210,8.0,9.0,34,-99.99,,,-99.99,,2013-04-28 07:01:00,
2013-04-28 03:33:00,54.0,30.0,-100.00,WNW,285,11.0,13.0,40,-99.99,,,-99.99,,2013-04-28 09:33:00,
2013-04-28 03:42:00,54.0,30.0,-100.00,WNW,285,11.0,13.0,40,-99.99,,,-99.99,,2013-04-28 09:42:00,
2013-04-28 03:53:00,54.0,30.0,-100.00,WNW,285,11.0,13.0,40,-99.99,,,-99.99,,2013-04-28 09:53:00,
2013-04-28 04:03:00,54.0,30.0,-100.00,WNW,285,11.0,13.0,40,-99.99,,,-99.99,,2013-04-28 10:03:00,
2013-04-28 06:32:00,48.0,30.0,-100.00,WSW,250,9.0,9.0,50,-99.99,,,-99.99,,2013-04-28 12:32:00,
2013-04-28 06:42:00,48.0,30.0,-100.00,WSW,250,9.0,9.0,50,-99.99,,,-99.99,,2013-04-28 12:42:00,
2013-04-28 06:52:00,48.0,30.0,-100.00,WSW,250,9.0,9.0,50,-99.99,,,-99.99,,2013-04-28 12:52:00,
2013-04-28 07:02:00,48.0,30.0,-100.00,WSW,250,9.0,9.0,50,-99.99,,,-99.99,,2013-04-28 13:02:00,
2013-04-28 09:33:00,56.0,34.0,-100.00,WNW,300,20.0,23.0,44,-99.99,,,-99.99,,2013-04-28 15:33:00,
2013-04-28 09:42:00,56.0,34.0,-100.00,WNW,300,20.0,23.0,44,-99.99,,,-99.99,,2013-04-28 15:42:00,
2013-04-28 09:53:00,56.0,34.0,-100.00,WNW,300,20.0,23.0,44,-99.99,,,-99.99,,2013-04-28 15:53:00,
2013-04-28 10:03:00,56.0,34.0,-100.00,WNW,300,20.0,23.0,44,-99.99,,,-99.99,,2013-04-28 16:03:00,
2013-04-28 15:33:00,59.0,34.0,-100.00,WNW,300,15.0,17.0,39,-99.99,,,-99.99,,2013-04-28 21:33:00,
2013-04-28 15:42:00,59.0,34.0,-100.00,WNW,300,15.0,17.0,39,-99.99,,,-99.99,,2013-04-28 21:42:00,
2013-04-28 15:52:00,59.0,34.0,-100.00,WNW,300,15.0,17.0,39,-99.99,,,-99.99,,2013-04-28 21:52:00,
2013-04-28 16:03:00,59.0,34.0,-100.00,WNW,300,15.0,17.0,39,-99.99,,,-99.99,,2013-04-28 22:03:00,
2013-04-28 18:52:00,59.0,33.0,-100.00,WNW,300,6.0,8.0,36,-99.99,,,-99.99,,2013-04-29 00:52:00,
2013-04-28 21:33:00,44.0,27.0,-100.00,ESE,120,2.0,3.0,51,-99.99,,,0.00,,2013-04-29 03:33:00,
2013-04-28 21:43:00,44.0,27.0,-100.00,ESE,120,2.0,3.0,51,-99.99,,,0.00,,2013-04-29 03:43:00,
2013-04-28 21:52:00,44.0,27.0,-100.00,ESE,120,2.0,3.0,51,-99.99,,,0.00,,2013-04-29 03:52:00,
2013-04-28 22:03:00,44.0,27.0,-100.00,ESE,120,2.0,3.0,51,-99.99,,,0.00,,2013-04-29 04:03:00,